Home   Weather   Crofton   Past weeks
Flag for Canada

Past Weather in Crofton, British Columbia, Canada — Yesterday and Last 2 Weeks

Now
48 °F

Clear.


Feels Like: 46 °F
Forecast: 60 / 40 °F
Wind: 6 mph from Southwest

Location: Nanaimo Airport

Current Time: Apr 24, 2019 at 9:31:10 pm

Latest Report: Apr 24, 2019 at 9:00 pm


Visibility: 15 mi

Pressure: 30.32 "Hg

Humidity: 62%

Dew Point: 36 °F

Location of CroftonLocation

Past Weather in Crofton — Graph

°F

Crofton Temperature Yesterday

Maximum temperature yesterday: 57 °F (at 11:00 am)
Minimum temperature yesterday: 43 °F (at 6:00 am)
Average temperature yesterday: 53 °F

High & Low Weather Summary for the Past Weeks

 TemperatureHumidityPressure
High64 °F (Apr 20, 5:00 pm)100% (Apr 10, 9:00 pm)30.36 "Hg (Apr 10, 9:00 pm)
Low36 °F (Apr 14, 6:00 am)36% (Apr 24, 3:00 pm)29.75 "Hg (Apr 13, 5:00 pm)
Average50 °F77%30.07 "Hg
* Reported Apr 9 8:00 pm — Apr 24 8:00 pm, Crofton. Weather by CustomWeather, © 2019

Note: Actual official high and low records may vary slightly from our data, if they occured in-between our weather recording intervals... More about our weather records

Advertising

Crofton Weather History for the Previous 24 Hours

Scroll right to see more
 ConditionsComfort  
Time TempWeatherWind HumidityBarometerVisibility
8:00 pm
Wed, Apr 24
54 °FScattered clouds.No wind47%30.32 "Hg30 mi
7:00 pm55 °FPassing clouds.5 mph41%30.32 "Hg30 mi
6:00 pm57 °FPassing clouds.8 mph36%30.33 "Hg30 mi
5:00 pm57 °FPassing clouds.6 mph36%30.33 "Hg30 mi
4:31 pm57 °FPassing clouds.2 mph36%30.33 "Hg30 mi
3:00 pm57 °FPassing clouds.9 mph36%30.36 "Hg30 mi
2:00 pm55 °FPassing clouds.13 mph47%30.36 "Hg30 mi
1:00 pm55 °FPassing clouds.10 mph51%30.36 "Hg30 mi
12:00 pm55 °FPassing clouds.13 mph51%30.36 "Hg30 mi
11:00 am54 °FPassing clouds.14 mph54%30.36 "Hg30 mi
10:00 am52 °FPassing clouds.8 mph44%30.35 "Hg30 mi
9:00 am50 °FPassing clouds.8 mph47%30.36 "Hg30 mi
8:00 am48 °FPassing clouds.7 mph54%30.36 "Hg30 mi
7:00 am45 °FPassing clouds.8 mph61%30.35 "Hg30 mi
6:00 am43 °FPassing clouds.5 mph66%30.32 "Hg30 mi
9:00 pm
Tue, Apr 23
50 °FPassing clouds.3 mph82%30.20 "Hg15 mi
Weather by CustomWeather, © 2019

See weather overview